Location: Gunung Kajang
(2.4167°N, 113.7167°E)
Time: 17:02:18
(UTC+00:00)

OBJECT-B - Pass Details

Date: 29 May 2022
Orbit: 376 x 381 km, 96.9° (Epoch: 08 May)

Event Time Altitude Azimuth Distance (km) Brightness Sun altitude
Exits shadow 12:16:56 12° 349° (N) 1,249 3.5 -25.4°
Drops below altitude 10° 12:17:04 11° 349° (N) 1,304 3.6 -25.4°
Sets 12:19:05 0° 350° (N) 2,192 4.9 -25.9°
